Location: Gniazdowice
(50.2124°N, 20.2673°E)
Time: 23:36:53
(UTC+00:00)

Cosmos 1782 Rocket - Pass Details

Date: 23 May 2024
Orbit: 602 x 629 km, 82.5° (Epoch: 22 June)

Event Time Altitude Azimuth Distance (km) Brightness Sun altitude
Rises 00:12:40 0° 351° (N) 2,903 8.0 -16.0°
Reaches altitude 10° 00:14:55 10° 354° (N) 1,988 7.1 -15.8°
Maximum altitude 00:19:18 69° 78° (ENE) 661 3.8 -15.5°
Enters shadow 00:22:42 16° 160° (SSE) 1,594 5.3 -15.3°
